Stündliche Wetter Ablaevo

Heute, 23 Juni, Mittwoch

Zeit Temperatur Niederschläge Wind Luftdruck Luftfeuchtigkeit
00:00 +24°C° 0 mm 3 m/S 750 mmHg 78%
01:00 +24°C° 0 mm 3 m/S 750 mmHg 81%
02:00 +22°C° 0 mm 3 m/S 749 mmHg 81%
03:00 +22°C° 0 mm 3 m/S 749 mmHg 82%
04:00 +21°C° 0 mm 3 m/S 749 mmHg 84%
05:00 +22°C° 0.1 mm 4 m/S 749 mmHg 82%
06:00 +23°C° 0.1 mm 4 m/S 749 mmHg 81%
07:00 +26°C° 0.1 mm 5 m/S 749 mmHg 79%
08:00 +27°C° 0 mm 5 m/S 749 mmHg 72%
09:00 +28°C° 0 mm 6 m/S 749 mmHg 66%
10:00 +30°C° 0 mm 6 m/S 749 mmHg 57%
11:00 +30°C° 0 mm 6 m/S 749 mmHg 54%
12:00 +32°C° 0 mm 5 m/S 749 mmHg 50%
13:00 +33°C° 0 mm 5 m/S 749 mmHg 47%
14:00 +32°C° 0 mm 5 m/S 749 mmHg 48%
15:00 +32°C° 0 mm 5 m/S 748 mmHg 49%
16:00 +32°C° 0 mm 5 m/S 748 mmHg 50%
17:00 +28°C° 2.6 mm 5 m/S 749 mmHg 64%
18:00 +25°C° 2.6 mm 5 m/S 749 mmHg 78%
19:00 +21°C° 2.6 mm 5 m/S 750 mmHg 91%
20:00 +20°C° 1 mm 4 m/S 750 mmHg 93%
21:00 +20°C° 1 mm 3 m/S 749 mmHg 94%
22:00 +19°C° 1 mm 2 m/S 749 mmHg 95%
23:00 +19°C° 0 mm 2 m/S 749 mmHg 95%

Morgen, 24 Juni, Donnerstag

Zeit Temperatur Niederschläge Wind Luftdruck Luftfeuchtigkeit
00:00 +18°C° 0 mm 2 m/S 750 mmHg 96%
01:00 +19°C° 0 mm 1 m/S 750 mmHg 97%
02:00 +19°C° 0 mm 1 m/S 750 mmHg 95%
03:00 +18°C° 0 mm 1 m/S 750 mmHg 94%
04:00 +18°C° 0 mm 1 m/S 750 mmHg 92%
05:00 +19°C° 0 mm 1 m/S 751 mmHg 87%
06:00 +20°C° 0 mm 1 m/S 751 mmHg 82%
07:00 +21°C° 0 mm 1 m/S 751 mmHg 77%
08:00 +22°C° 0 mm 1 m/S 751 mmHg 71%
09:00 +23°C° 0 mm 1 m/S 751 mmHg 65%
10:00 +25°C° 0 mm 1 m/S 751 mmHg 58%
11:00 +25°C° 0 mm 1 m/S 751 mmHg 56%
12:00 +26°C° 0 mm 1 m/S 751 mmHg 53%
13:00 +27°C° 0 mm 1 m/S 751 mmHg 50%
14:00 +28°C° 0 mm 1 m/S 751 mmHg 50%
15:00 +28°C° 0 mm 1 m/S 751 mmHg 50%
16:00 +28°C° 0 mm 1 m/S 750 mmHg 50%
17:00 +28°C° 0 mm 1 m/S 750 mmHg 55%
18:00 +28°C° 0 mm 1 m/S 750 mmHg 60%
19:00 +25°C° 0 mm 0 m/S 749 mmHg 65%
20:00 +26°C° 0.2 mm 1 m/S 749 mmHg 69%
21:00 +24°C° 0.2 mm 2 m/S 749 mmHg 73%
22:00 +21°C° 0.2 mm 2 m/S 749 mmHg 77%
23:00 +21°C° 0.6 mm 2 m/S 749 mmHg 81%

übermorgen, 25 Juni, Freitag

Zeit Temperatur Niederschläge Wind Luftdruck Luftfeuchtigkeit
00:00 +20°C° 0.6 mm 2 m/S 748 mmHg 85%
01:00 +20°C° 0.6 mm 3 m/S 748 mmHg 89%
02:00 +19°C° 0.8 mm 3 m/S 748 mmHg 91%
03:00 +19°C° 0.8 mm 3 m/S 748 mmHg 94%
04:00 +19°C° 0.8 mm 3 m/S 748 mmHg 96%
05:00 +20°C° 0.1 mm 2 m/S 747 mmHg 93%
06:00 +20°C° 0.1 mm 2 m/S 747 mmHg 89%
07:00 +21°C° 0.1 mm 2 m/S 747 mmHg 86%
08:00 +24°C° 0 mm 3 m/S 747 mmHg 80%
09:00 +25°C° 0 mm 3 m/S 747 mmHg 74%
10:00 +26°C° 0 mm 4 m/S 747 mmHg 68%
11:00 +27°C° 0 mm 4 m/S 747 mmHg 65%
12:00 +28°C° 0 mm 4 m/S 747 mmHg 62%
13:00 +29°C° 0 mm 3 m/S 747 mmHg 59%
14:00 +30°C° 0 mm 4 m/S 747 mmHg 57%
15:00 +30°C° 0 mm 4 m/S 746 mmHg 56%
16:00 +30°C° 0 mm 4 m/S 746 mmHg 55%
17:00 +30°C° 0 mm 4 m/S 746 mmHg 60%
18:00 +29°C° 0 mm 3 m/S 745 mmHg 66%
19:00 +29°C° 0 mm 2 m/S 745 mmHg 71%
20:00 +27°C° 0.2 mm 2 m/S 745 mmHg 76%
21:00 +26°C° 0.2 mm 2 m/S 745 mmHg 81%
22:00 +24°C° 0.2 mm 2 m/S 745 mmHg 86%
23:00 +24°C° 0.5 mm 2 m/S 745 mmHg 88%

26 Juni, Samstag

Zeit Temperatur Niederschläge Wind Luftdruck Luftfeuchtigkeit
00:00 +24°C° 0.5 mm 2 m/S 745 mmHg 89%
01:00 +23°C° 0.5 mm 2 m/S 744 mmHg 90%
02:00 +23°C° 0.1 mm 2 m/S 744 mmHg 91%
03:00 +23°C° 0.1 mm 2 m/S 744 mmHg 92%
04:00 +21°C° 0.1 mm 2 m/S 744 mmHg 93%
05:00 +22°C° 0.3 mm 3 m/S 744 mmHg 91%
06:00 +23°C° 0.3 mm 4 m/S 745 mmHg 88%
07:00 +25°C° 0.3 mm 4 m/S 745 mmHg 86%
08:00 +26°C° 0.1 mm 4 m/S 745 mmHg 78%
09:00 +27°C° 0.1 mm 5 m/S 745 mmHg 70%
10:00 +28°C° 0.1 mm 5 m/S 745 mmHg 62%
11:00 +29°C° 0 mm 5 m/S 745 mmHg 60%
12:00 +29°C° 0 mm 5 m/S 745 mmHg 57%
13:00 +30°C° 0 mm 6 m/S 745 mmHg 54%
14:00 +30°C° 0 mm 6 m/S 745 mmHg 54%
15:00 +30°C° 0 mm 6 m/S 745 mmHg 54%
16:00 +30°C° 0 mm 6 m/S 745 mmHg 54%
17:00 +29°C° 0 mm 5 m/S 745 mmHg 58%
18:00 +28°C° 0 mm 4 m/S 745 mmHg 62%
19:00 +27°C° 0 mm 4 m/S 745 mmHg 66%
20:00 +26°C° 0 mm 3 m/S 745 mmHg 69%
21:00 +25°C° 0 mm 3 m/S 745 mmHg 72%
22:00 +22°C° 0 mm 3 m/S 745 mmHg 76%
23:00 +23°C° 0 mm 2 m/S 745 mmHg 79%

27 Juni, Sonntag

Zeit Temperatur Niederschläge Wind Luftdruck Luftfeuchtigkeit
00:00 +21°C° 0 mm 2 m/S 745 mmHg 81%
01:00 +20°C° 0 mm 2 m/S 745 mmHg 84%
02:00 +20°C° 0 mm 2 m/S 745 mmHg 85%
03:00 +19°C° 0 mm 2 m/S 745 mmHg 87%
04:00 +19°C° 0 mm 2 m/S 745 mmHg 88%
05:00 +20°C° 0 mm 3 m/S 745 mmHg 82%
06:00 +21°C° 0 mm 3 m/S 746 mmHg 76%
07:00 +22°C° 0 mm 3 m/S 746 mmHg 71%
08:00 +24°C° 0 mm 3 m/S 746 mmHg 66%
09:00 +25°C° 0 mm 4 m/S 746 mmHg 62%
10:00 +26°C° 0 mm 4 m/S 746 mmHg 58%
11:00 +27°C° 0 mm 4 m/S 746 mmHg 55%
12:00 +27°C° 0 mm 4 m/S 746 mmHg 52%
13:00 +28°C° 0 mm 4 m/S 746 mmHg 49%
14:00 +28°C° 0 mm 4 m/S 746 mmHg 49%
15:00 +28°C° 0 mm 4 m/S 746 mmHg 49%
16:00 +28°C° 0 mm 4 m/S 746 mmHg 49%
17:00 +27°C° 0 mm 3 m/S 746 mmHg 55%
18:00 +27°C° 0 mm 3 m/S 746 mmHg 60%
19:00 +26°C° 0 mm 2 m/S 746 mmHg 65%
20:00 +24°C° 0 mm 2 m/S 746 mmHg 69%
21:00 +23°C° 0 mm 2 m/S 746 mmHg 72%
22:00 +20°C° 0 mm 2 m/S 746 mmHg 76%
23:00 +19°C° 0 mm 2 m/S 746 mmHg 77%

28 Juni, Montag

Zeit Temperatur Niederschläge Wind Luftdruck Luftfeuchtigkeit
00:00 +19°C° 0 mm 2 m/S 746 mmHg 79%
01:00 +19°C° 0 mm 1 m/S 746 mmHg 81%
02:00 +19°C° 0 mm 1 m/S 746 mmHg 83%
03:00 +18°C° 0 mm 1 m/S 746 mmHg 85%
04:00 +18°C° 0 mm 1 m/S 746 mmHg 87%
05:00 +18°C° 0 mm 2 m/S 746 mmHg 83%
06:00 +20°C° 0 mm 2 m/S 747 mmHg 79%
07:00 +21°C° 0 mm 3 m/S 747 mmHg 75%
08:00 +22°C° 0 mm 3 m/S 747 mmHg 69%
09:00 +25°C° 0 mm 3 m/S 747 mmHg 62%
10:00 +26°C° 0 mm 3 m/S 747 mmHg 56%
11:00 +27°C° 0 mm 3 m/S 747 mmHg 52%
12:00 +28°C° 0 mm 3 m/S 747 mmHg 49%
13:00 +28°C° 0 mm 3 m/S 747 mmHg 45%
14:00 +28°C° 0 mm 3 m/S 747 mmHg 45%
15:00 +28°C° 0 mm 3 m/S 747 mmHg 45%
16:00 +28°C° 0 mm 3 m/S 746 mmHg 45%
17:00 +28°C° 0 mm 3 m/S 747 mmHg 51%
18:00 +27°C° 0 mm 3 m/S 747 mmHg 57%
19:00 +26°C° 0 mm 3 m/S 747 mmHg 63%
20:00 +24°C° 0 mm 3 m/S 747 mmHg 70%
21:00 +21°C° 0 mm 3 m/S 747 mmHg 77%
22:00 +19°C° 0 mm 3 m/S 747 mmHg 84%
23:00 +18°C° 0 mm 3 m/S 747 mmHg 86%
Mehr zeigen

Wir brauchen deine Erlaubnis

Meteoprog und unser Service Anbieter werden persönliche Daten aufbewahren, so wie Cookies, Geräte Bezeichnung oder ähnliche Technologien von deinem Gerät und Prozess, so wie Persönliche Daten Inhalte und Werbungen, genauso wie social Media und den Verkehr zu analysieren.

  • Aufbewahrung und/oder Zugang zu deiner Geräte Informationen.

    Cookies, Geräte Bezeichnung oder andere Informationen, können aufbewahrt oder Zugang zu deinem Gerät erhalten, für den Grund, der oben angegeben wird.

  • Personalisierte Werbung und Inhalte, Messungen, Einblick in das Publikum und Produkt Entwicklung.

    Werbungen und Inhalte können personalisiert werden, basierend auf ein Profil. Mehr Daten können besser personalisierte Werbungen und Inhalte hinzufügen. Werbung und Inhalte können gezeigt und gemessen werden. Einblicke über das Publikum, welche die Werbung gesehen haben und den Inhalt, können abgeleitet werden. So wie Daten können genutzt werden, um es zu verbessern oder die Benutzer Erfahrung zu verbessern das System und die Software.

Wenn du “Ich stimme zu” klickst, erlaubst du uns, die Cookies zu benutzen die Geräte Bezeichnung, den Web oder ähnliche Technologien zu benutzen. Deine Settings, können in deinem Gerät bei deinem Browser geändert werden.

Für den bestimmten Zweck, berechtigten Interessen beruhen darauf, mehr als auf den Inhalt. Du kannst mehr darüber in unseren Privaten und Cookie Politik lesen.